Temp
-10 -10 -9 -10 -11 -10 -10 -10 -10 -10 -10 -10 -10 -10 -9 -10 -9 -10 -10 -10 -10 -11 -11 -11 -11 -11 -11 -11 -10 -10 -10 -10 -9 -10 -10 -10 -10 -11 -11 -11 -11 -11 -11 -11
-10 -9 -10 -11 -11 -11 -10 -10 -10 -10 -11 -11 -10 -9 -9 -9 -9 -9 -10 -10 -10 -11 -11 -11 -11 -11 -11 -10 -10 -10 -10 -10 -10 -10 -10 -11 -11 -11 -11 -11 -11 -11 -11 -11
-10 -10 -11 -11 -11 -11 -11 -11 -11 -11 -11 -11 -10 -8 -9 -9 -9 -10 -9 -10 -10 -11 -11 -11 -11 -11 -11 -10 -10 -10 -10 -10 -10 -10 -10 -11 -11 -10 -10 -11 -11 -11 -11 -11
-10 -10 -11 -11 -11 -12 -11 -12 -11 -11 -11 -10 -11 -7 -8 -9 -9 -10 -10 -10 -10 -11 -11 -11 -11 -11 -11 -10 -10 -10 -10 -10 -10 -11 -11 -11 -11 -11 -11 -12 -12 -12 -12 -11
-11 -12 -12 -12 -12 -12 -12 -12 -12 -12 -11 -10 -10 -10 -7 -9 -9 -10 -10 -10 -10 -11 -11 -11 -10 -11 -10 -10 -10 -10 -10 -10 -11 -11 -11 -11 -11 -11 -11 -11 -12 -12 -12 -11
-12 -12 -13 -13 -13 -13 -13 -13 -13 -13 -13 -11 -11 -12 -5 -9 -10 -10 -10 -10 -10 -11 -11 -11 -10 -10 -10 -10 -10 -10 -11 -11 -11 -12 -11 -12 -12 -12 -11 -11 -12 -12 -11 -11
-12 -12 -12 -13 -14 -14 -14 -14 -15 -14 -14 -12 -12 -12 -8 -10 -10 -11 -11 -10 -11 -11 -11 -11 -11 -12 -11 -11 -11 -11 -11 -11 -12 -11 -11 -12 -12 -12 -12 -12 -12 -12 -11 -11
-14 -13 -14 -13 -14 -15 -14 -14 -15 -16 -14 -13 -13 -11 -9 -10 -11 -11 -12 -11 -12 -12 -11 -11 -12 -12 -14 -13 -13 -13 -12 -12 -12 -12 -12 -12 -12 -12 -12 -12 -12 -13 -13 -13
-16 -15 -14 -14 -14 -15 -13 -14 -14 -15 -15 -15 -11 -11 -11 -11 -11 -12 -12 -12 -13 -12 -12 -12 -13 -13 -13 -14 -13 -13 -13 -12 -12 -12 -12 -12 -12 -12 -13 -13 -13 -13 -14 -13
-15 -16 -15 -15 -15 -14 -14 -15 -15 -15 -16 -15 -12 -12 -10 -11 -12 -13 -13 -13 -14 -14 -13 -14 -14 -14 -14 -13 -14 -14 -13 -13 -13 -13 -13 -13 -13 -13 -13 -13 -13 -13 -14 -13
-16 -17 -16 -16 -14 -15 -16 -16 -16 -16 -16 -16 -15 -12 -11 -11 -12 -13 -14 -15 -15 -15 -16 -15 -15 -15 -15 -14 -14 -14 -13 -14 -14 -13 -13 -13 -13 -14 -14 -14 -14 -14 -14 -13
-17 -17 -16 -16 -16 -16 -16 -16 -16 -16 -15 -16 -16 -15 -12 -12 -12 -13 -14 -15 -16 -16 -17 -16 -16 -17 -16 -15 -14 -14 -14 -14 -14 -14 -14 -14 -14 -14 -15 -15 -14 -14 -14 -14
-17 -17 -17 -17 -16 -16 -17 -17 -17 -17 -17 -17 -17 -14 -12 -13 -13 -13 -14 -14 -15 -15 -16 -16 -16 -16 -16 -16 -15 -15 -15 -15 -15 -15 -14 -15 -15 -15 -15 -15 -15 -15 -14 -14
-19 -19 -19 -18 -17 -17 -18 -17 -16 -17 -17 -16 -16 -14 -13 -13 -14 -14 -15 -16 -16 -15 -15 -16 -16 -15 -16 -15 -15 -15 -15 -15 -15 -16 -16 -15 -15 -15 -15 -15 -15 -15 -15 -15
-19 -19 -18 -18 -18 -19 -18 -17 -17 -17 -17 -18 -16 -17 -15 -14 -15 -15 -15 -15 -16 -16 -16 -16 -16 -16 -16 -16 -16 -15 -16 -15 -15 -15 -15 -16 -16 -16 -16 -16 -16 -16 -16 -16
-19 -19 -19 -19 -18 -19 -19 -18 -18 -18 -17 -18 -18 -17 -16 -16 -16 -15 -15 -16 -18 -17 -17 -16 -16 -17 -17 -16 -15 -16 -16 -16 -16 -16 -16 -16 -16 -17 -17 -17 -17 -17 -17 -18
-20 -20 -19 -19 -19 -19 -20 -18 -18 -19 -17 -17 -18 -17 -18 -18 -18 -16 -16 -17 -17 -18 -17 -17 -18 -18 -17 -16 -15 -15 -17 -17 -17 -17 -17 -17 -17 -17 -18 -18 -18 -18 -18 -19
-20 -20 -20 -21 -21 -21 -18 -18 -19 -20 -20 -19 -20 -19 -19 -19 -18 -18 -18 -18 -18 -18 -18 -18 -18 -16 -17 -16 -16 -16 -17 -16 -17 -17 -18 -18 -18 -18 -18 -18 -19 -19 -20 -20
-20 -20 -21 -21 -22 -21 -22 -20 -20 -20 -21 -21 -21 -21 -20 -19 -19 -18 -18 -19 -18 -17 -17 -17 -17 -17 -17 -18 -17 -17 -17 -17 -17 -18 -18 -18 -19 -19 -19 -19 -20 -20 -21 -21
-22 -21 -22 -22 -22 -22 -20 -22 -21 -22 -22 -22 -22 -21 -20 -21 -20 -19 -18 -18 -18 -17 -18 -18 -18 -18 -18 -19 -20 -20 -18 -18 -19 -19 -19 -19 -19 -20 -20 -20 -20 -20 -20 -21
-23 -22 -23 -22 -23 -23 -22 -22 -22 -22 -22 -22 -21 -22 -22 -22 -21 -21 -20 -20 -20 -19 -20 -20 -20 -20 -20 -20 -20 -20 -20 -19 -20 -20 -20 -20 -20 -20 -21 -21 -21 -20 -20 -21
-24 -24 -24 -25 -24 -24 -24 -23 -23 -22 -22 -22 -22 -22 -22 -22 -22 -22 -21 -21 -21 -20 -21 -20 -20 -20 -20 -21 -21 -21 -21 -21 -21 -21 -21 -21 -21 -21 -22 -21 -21 -21 -21 -21
-26 -26 -26 -26 -25 -25 -25 -25 -23 -22 -22 -22 -22 -21 -22 -22 -22 -22 -22 -21 -22 -21 -21 -21 -21 -21 -21 -21 -22 -22 -22 -21 -21 -21 -22 -22 -21 -22 -22 -22 -21 -21 -21 -21
-27 -27 -29 -28 -27 -26 -26 -25 -24 -24 -24 -23 -22 -22 -22 -22 -22 -22 -22 -22 -22 -23 -22 -22 -22 -22 -22 -22 -22 -23 -23 -22 -21 -21 -22 -22 -21 -21 -22 -22 -22 -21 -22 -22
-28 -28 -29 -29 -28 -27 -27 -26 -26 -26 -24 -23 -23 -23 -23 -23 -23 -23 -22 -22 -22 -22 -23 -22 -22 -22 -22 -22 -23 -23 -23 -23 -22 -22 -22 -22 -22 -22 -22 -22 -22 -22 -22 -24
-31 -30 -30 -29 -29 -29 -27 -28 -28 -26 -25 -24 -24 -23 -23 -23 -23 -23 -23 -23 -23 -23 -24 -23 -22 -22 -22 -23 -22 -23 -23 -23 -23 -22 -22 -23 -23 -22 -23 -22 -23 -23 -24 -24
Height
5808 5802 5806 5814 5806 5802 5799 5795 5793 5800 5802 5787 5783 5780 5788 5797 5792 5790 5791 5790 5789 5788 5789 5785 5783 5783 5781 5779 5779 5778 5776 5774 5772 5771 5769 5769 5768 5767 5767 5766 5765 5763 5761 5759
5797 5789 5801 5799 5796 5792 5788 5787 5785 5785 5792 5780 5773 5765 5769 5782 5786 5783 5781 5783 5781 5779 5777 5775 5772 5771 5771 5768 5768 5766 5765 5762 5761 5759 5757 5758 5758 5758 5756 5754 5753 5751 5750 5747
5786 5784 5785 5786 5784 5782 5782 5777 5777 5771 5771 5768 5762 5748 5755 5766 5771 5775 5775 5773 5772 5770 5767 5764 5763 5761 5758 5758 5756 5754 5752 5750 5748 5747 5748 5748 5748 5748 5746 5743 5742 5739 5737 5735
5769 5779 5777 5769 5767 5774 5765 5774 5767 5762 5759 5748 5750 5726 5740 5754 5758 5761 5765 5763 5763 5761 5757 5754 5752 5749 5746 5745 5743 5741 5739 5738 5737 5737 5737 5739 5739 5738 5736 5733 5730 5727 5725 5723
5767 5764 5762 5762 5763 5756 5756 5755 5753 5751 5747 5741 5733 5726 5723 5734 5742 5748 5750 5750 5751 5749 5747 5743 5740 5738 5735 5733 5732 5731 5728 5727 5726 5727 5728 5729 5729 5727 5724 5722 5719 5716 5713 5712
5752 5751 5749 5750 5748 5745 5745 5743 5739 5735 5731 5722 5725 5729 5708 5719 5722 5728 5731 5735 5736 5736 5730 5731 5729 5725 5724 5722 5720 5718 5717 5715 5715 5715 5716 5717 5717 5716 5714 5712 5710 5706 5702 5699
5739 5738 5737 5737 5735 5733 5731 5729 5721 5715 5712 5710 5715 5710 5702 5706 5709 5710 5712 5719 5718 5718 5719 5714 5709 5710 5711 5710 5708 5707 5705 5704 5704 5705 5705 5704 5704 5704 5702 5701 5700 5696 5692 5687
5714 5718 5724 5724 5720 5719 5717 5715 5707 5698 5701 5701 5700 5691 5693 5697 5697 5698 5697 5699 5700 5702 5702 5702 5700 5699 5695 5694 5695 5696 5695 5695 5695 5695 5693 5692 5692 5691 5689 5687 5685 5684 5679 5675
5697 5695 5701 5703 5705 5705 5702 5695 5701 5685 5684 5681 5690 5685 5685 5686 5687 5686 5684 5686 5687 5686 5688 5689 5689 5688 5686 5681 5682 5682 5682 5682 5683 5682 5681 5681 5680 5677 5675 5672 5669 5666 5662 5658
5681 5673 5687 5687 5686 5687 5681 5683 5680 5675 5664 5661 5671 5670 5673 5675 5675 5675 5671 5674 5675 5676 5678 5678 5676 5676 5673 5668 5666 5670 5670 5672 5670 5670 5668 5666 5665 5662 5660 5657 5654 5649 5645 5641
5664 5657 5662 5666 5673 5673 5667 5662 5662 5659 5654 5644 5644 5654 5667 5662 5661 5658 5659 5661 5662 5662 5663 5663 5662 5659 5656 5654 5653 5653 5654 5656 5655 5654 5652 5650 5648 5646 5644 5641 5637 5633 5629 5626
5647 5634 5634 5645 5653 5652 5647 5642 5642 5634 5638 5631 5624 5630 5660 5652 5648 5648 5644 5643 5646 5645 5643 5642 5642 5638 5636 5637 5638 5638 5638 5639 5638 5636 5636 5633 5632 5628 5626 5624 5621 5618 5614 5611
5631 5618 5613 5617 5629 5633 5628 5628 5622 5618 5614 5610 5606 5617 5645 5636 5632 5630 5631 5629 5627 5628 5626 5623 5619 5618 5617 5619 5621 5621 5621 5622 5620 5618 5617 5616 5614 5612 5610 5608 5604 5600 5596 5593
5607 5598 5598 5594 5604 5615 5608 5609 5606 5602 5593 5596 5593 5601 5618 5622 5621 5621 5617 5614 5610 5607 5606 5603 5601 5602 5599 5601 5603 5604 5604 5603 5602 5601 5601 5601 5599 5596 5593 5589 5585 5581 5577 5574
5587 5573 5577 5578 5582 5587 5588 5590 5592 5586 5583 5574 5587 5581 5597 5607 5605 5598 5597 5596 5593 5590 5585 5585 5585 5582 5579 5582 5585 5586 5588 5587 5586 5585 5583 5583 5582 5579 5576 5572 5567 5563 5559 5554
5564 5552 5555 5551 5562 5564 5563 5571 5572 5568 5571 5562 5561 5563 5583 5584 5586 5583 5585 5581 5571 5571 5569 5568 5567 5563 5562 5564 5565 5566 5567 5569 5567 5567 5566 5564 5560 5559 5557 5553 5548 5544 5539 5533
5544 5538 5537 5527 5540 5538 5525 5546 5550 5550 5552 5548 5537 5548 5558 5555 5561 5568 5565 5558 5557 5558 5557 5552 5548 5547 5547 5547 5547 5547 5548 5548 5549 5548 5546 5544 5540 5538 5536 5531 5527 5523 5519 5514
5528 5526 5516 5509 5516 5497 5512 5526 5527 5523 5527 5530 5522 5524 5526 5529 5534 5535 5538 5535 5538 5538 5535 5533 5529 5532 5535 5532 5529 5530 5530 5530 5530 5528 5526 5523 5522 5519 5517 5513 5509 5506 5501 5498
5509 5506 5494 5493 5489 5490 5492 5504 5507 5503 5499 5509 5495 5494 5494 5498 5504 5510 5515 5505 5508 5511 5510 5508 5511 5512 5513 5510 5509 5511 5513 5514 5512 5509 5507 5503 5502 5501 5498 5493 5490 5487 5484 5483
5491 5486 5479 5478 5472 5469 5487 5485 5486 5489 5471 5478 5470 5466 5469 5478 5478 5485 5491 5486 5487 5487 5488 5486 5485 5487 5489 5489 5489 5492 5495 5494 5491 5491 5490 5487 5484 5481 5480 5477 5474 5471 5467 5465
5462 5462 5453 5453 5452 5460 5462 5462 5468 5464 5451 5453 5445 5442 5445 5447 5449 5453 5460 5465 5464 5465 5466 5468 5470 5472 5471 5468 5469 5470 5472 5473 5470 5470 5469 5464 5463 5462 5463 5461 5459 5454 5450 5448
5429 5431 5434 5430 5429 5436 5440 5440 5447 5430 5428 5427 5420 5425 5424 5423 5424 5427 5432 5440 5444 5445 5445 5446 5446 5448 5448 5446 5446 5449 5451 5448 5449 5447 5447 5446 5446 5447 5446 5444 5441 5438 5435 5434
5406 5409 5400 5400 5397 5415 5416 5415 5410 5395 5399 5399 5394 5402 5397 5400 5403 5405 5408 5412 5414 5420 5423 5423 5423 5425 5425 5423 5424 5426 5427 5426 5426 5426 5427 5427 5428 5428 5426 5425 5423 5420 5418 5418
5380 5388 5373 5373 5383 5388 5391 5387 5382 5381 5378 5377 5372 5373 5373 5377 5380 5384 5386 5387 5390 5394 5395 5396 5396 5399 5403 5404 5404 5403 5404 5406 5406 5406 5406 5408 5409 5409 5407 5406 5403 5402 5400 5399
5361 5360 5355 5350 5357 5358 5358 5365 5362 5358 5352 5352 5350 5350 5352 5351 5356 5354 5360 5363 5364 5367 5369 5371 5373 5376 5381 5381 5382 5382 5383 5384 5386 5386 5385 5385 5388 5389 5386 5386 5384 5382 5381 5379
5337 5335 5329 5321 5325 5322 5332 5332 5327 5331 5325 5322 5322 5324 5328 5326 5325 5328 5328 5335 5337 5343 5345 5348 5349 5350 5355 5356 5358 5361 5361 5361 5362 5364 5364 5365 5365 5366 5365 5363 5364 5362 5361 5360
Wind_Speed
44 52 48 37 42 47 49 52 52 44 39 52 55 57 49 38 39 38 38 39 38 37 36 40 41 41 40 40 38 39 39 43 44 45 43 40 39 39 40 40 41 41 42 44
46 53 43 44 47 51 53 53 52 51 43 52 58 63 59 47 39 38 39 36 37 36 36 40 41 40 39 41 40 41 43 46 46 45 43 40 39 38 40 43 44 43 43 43
48 47 45 47 50 51 54 57 55 57 53 57 62 69 64 53 44 39 37 36 35 33 37 40 41 42 43 42 43 45 47 45 44 43 42 38 38 40 44 44 43 43 43 42
51 41 42 47 50 48 54 49 56 60 61 66 61 72 66 56 50 45 40 39 36 36 41 42 41 43 46 45 47 43 41 41 43 44 42 41 41 39 36 37 39 41 43 45
50 49 48 46 44 49 51 48 49 52 57 65 68 70 65 59 53 49 43 41 39 36 39 43 46 45 47 42 39 40 43 46 48 47 44 40 36 33 32 34 35 42 46 48
51 47 47 44 45 46 48 52 55 58 60 68 67 64 62 63 60 55 53 47 42 40 44 41 39 37 36 35 39 44 48 48 45 42 40 38 35 34 33 33 35 43 48 51
50 53 54 52 50 51 48 48 55 63 65 68 66 69 66 66 65 63 59 51 49 45 40 42 37 31 31 38 40 41 43 43 42 41 40 42 39 37 37 36 39 44 49 51
58 57 53 55 56 55 59 59 62 64 65 66 68 72 68 69 67 65 62 56 56 54 41 35 30 36 32 34 33 36 40 41 41 43 43 43 43 43 42 44 46 42 48 50
59 60 57 58 58 59 62 64 61 68 69 72 67 69 67 67 66 64 63 58 46 20 21 27 32 32 36 37 38 41 42 44 45 44 44 44 46 48 49 51 50 45 48 50
62 64 60 61 61 64 68 66 67 68 73 73 68 69 65 66 63 64 65 53 35 28 25 32 30 37 42 48 47 43 45 43 45 48 49 49 50 54 55 55 50 50 53 55
69 74 73 69 66 62 65 67 67 69 71 74 75 67 58 62 62 62 60 55 42 49 40 43 44 43 44 49 51 52 52 46 47 49 51 52 55 56 56 56 54 56 59 60
73 68 76 72 61 52 55 60 61 74 71 75 78 75 50 59 62 62 64 64 59 52 53 54 48 56 60 55 55 56 54 53 52 53 53 53 52 51 52 52 54 60 64 64
75 80 70 70 55 50 54 50 52 58 67 70 73 62 46 53 55 60 57 60 60 58 60 59 59 61 57 51 51 53 56 56 54 54 52 49 47 48 50 55 59 62 64 66
78 80 84 90 81 71 61 53 51 53 60 59 60 58 49 52 55 57 52 53 55 56 54 56 59 59 60 60 57 56 56 52 51 49 48 49 52 55 59 63 66 67 69 69
80 87 88 89 86 79 67 65 59 56 57 61 51 54 40 40 48 53 54 57 58 59 61 57 57 61 61 57 57 56 54 54 57 55 56 56 58 62 64 64 65 67 70 72
82 88 85 84 85 76 72 70 71 72 69 72 76 79 68 55 48 52 48 39 46 49 50 51 58 54 51 56 57 54 57 55 58 58 60 65 66 66 64 63 64 68 75 77
67 71 75 84 80 82 82 88 81 73 83 84 72 75 66 65 60 59 61 57 56 51 53 50 47 50 54 59 59 60 59 60 62 65 67 66 66 67 63 64 66 68 70 68
65 65 65 73 64 73 75 68 65 63 67 66 69 69 71 68 65 67 67 69 65 66 64 65 65 66 62 67 68 68 67 69 71 73 71 70 69 67 65 65 65 66 61 54
57 62 66 68 60 61 61 59 57 57 64 60 66 67 67 69 70 75 69 72 77 77 74 76 74 73 72 71 75 74 74 75 79 75 73 74 72 67 65 65 63 62 58 57
84 86 87 81 82 77 71 70 72 72 66 67 74 80 79 70 69 68 70 75 78 77 75 78 79 79 79 75 73 76 80 82 74 71 75 75 71 71 69 64 63 59 59 58
93 100 101 95 89 87 76 81 60 67 75 69 66 73 76 74 75 71 63 64 67 70 68 69 70 70 69 73 76 77 76 71 71 71 66 69 71 70 67 65 62 57 57 61
89 93 96 97 92 88 82 83 87 95 93 95 95 92 83 84 87 71 67 66 65 68 71 69 70 70 74 72 73 69 70 74 73 67 70 74 69 67 65 66 60 49 55 59
78 79 85 85 89 83 79 76 71 68 79 80 86 83 89 74 68 68 71 76 78 79 74 68 68 71 72 69 69 71 72 71 68 67 68 69 69 66 66 69 71 66 62 69
77 75 78 82 82 82 76 77 71 70 79 91 92 91 73 74 76 74 75 81 80 67 66 71 71 69 69 71 72 65 66 68 67 68 69 68 61 64 69 72 74 77 71 74
69 71 74 79 80 83 87 87 92 92 87 76 71 72 74 84 85 84 84 86 83 76 74 77 75 75 72 78 74 65 66 63 65 68 68 69 65 62 70 73 72 73 73 83
57 62 66 73 75 80 81 82 91 91 97 102 101 103 100 99 89 85 73 76 75 78 78 83 90 91 82 81 79 67 67 68 71 73 73 73 65 63 62 69 79 85 86 89
Wind_Direction
276 274 281 289 282 282 283 284 289 292 290 287 287 286 287 287 290 292 280 277 278 279 276 276 278 280 279 279 277 281 280 282 285 286 284 282 283 285 287 291 294 296 295 293
275 275 282 280 278 279 280 284 286 287 285 279 281 283 284 284 286 286 288 286 282 281 281 280 282 283 281 279 281 278 279 282 284 281 282 283 285 289 292 294 295 295 294 293
273 277 276 275 276 277 280 283 286 284 282 278 282 280 282 285 285 282 285 287 285 284 281 281 281 280 280 280 279 281 281 278 277 279 282 284 287 293 294 294 293 295 294 291
270 275 276 276 274 279 276 281 280 283 282 281 277 280 280 285 283 283 286 285 283 282 283 281 280 278 280 280 281 276 273 272 272 277 280 284 290 292 296 297 294 293 293 292
279 276 273 271 278 279 280 278 276 274 274 276 275 280 286 285 285 287 283 279 283 282 274 275 278 278 279 278 273 272 276 276 276 280 285 286 287 288 290 291 291 291 293 296
277 275 273 278 275 275 277 278 279 276 274 269 274 280 281 285 288 287 289 289 285 283 284 278 279 274 271 271 267 268 270 274 278 280 282 283 284 284 285 284 290 295 293 292
277 278 278 275 276 277 277 276 275 271 271 269 277 277 277 280 287 289 290 293 289 286 284 286 287 267 263 259 258 260 263 266 271 277 280 282 282 285 281 280 288 285 283 285
286 285 279 274 275 275 273 275 270 276 276 275 271 272 278 283 287 290 294 293 296 298 290 284 264 277 260 242 248 254 259 266 271 275 277 279 281 282 279 283 289 278 279 285
287 283 283 281 277 275 276 273 278 276 274 274 271 273 275 280 284 290 289 293 299 292 263 244 269 264 259 266 260 261 263 266 274 276 278 282 280 280 280 284 288 277 280 285
283 285 285 282 279 279 279 276 273 276 276 276 273 273 276 281 287 288 290 291 277 279 257 272 272 273 265 264 266 265 264 269 272 276 280 281 279 279 281 284 285 278 279 284
286 285 286 282 282 283 280 276 275 272 269 272 272 265 273 278 280 283 285 287 276 285 263 280 281 266 268 261 263 269 272 275 276 279 280 280 280 280 282 284 284 284 283 284
281 282 280 280 280 275 275 277 280 273 273 271 269 270 267 272 276 281 284 284 282 277 274 281 274 272 274 269 269 270 270 275 279 281 279 280 281 282 284 284 283 286 284 283
274 274 281 278 275 277 280 279 272 272 271 267 271 271 275 271 273 278 278 276 276 275 277 278 275 272 269 268 269 269 274 279 281 279 280 283 284 283 284 286 287 287 285 285
270 271 267 274 277 268 269 271 272 270 270 274 272 278 268 270 274 274 275 277 278 275 270 274 273 271 268 268 268 270 276 277 276 274 276 277 281 284 287 289 291 289 286 286
264 267 270 273 277 276 269 262 264 266 272 276 275 282 281 266 280 273 267 270 275 274 272 266 267 270 264 265 268 269 267 266 268 270 275 283 287 287 287 286 283 283 284 284
267 269 271 271 271 270 265 264 267 263 262 274 280 281 282 286 274 271 272 280 283 281 278 270 266 260 266 268 270 269 269 268 269 272 285 288 287 282 284 282 282 282 284 286
274 276 274 272 273 272 269 270 279 282 273 280 276 281 281 280 271 271 265 267 273 278 277 258 261 260 259 262 266 270 273 276 280 283 289 289 287 285 283 284 286 287 286 287
252 266 268 279 278 272 280 279 279 272 276 272 275 274 268 269 265 268 268 272 273 269 266 265 266 265 263 263 264 265 269 273 280 287 289 287 285 284 285 285 285 284 287 286
252 253 259 270 270 281 279 271 274 279 280 276 274 274 270 262 260 263 263 260 263 264 264 262 261 262 265 267 268 272 273 274 282 286 285 281 282 282 285 285 283 285 285 295
255 254 266 267 272 277 271 279 279 283 275 278 275 274 274 272 263 260 259 261 263 261 257 259 259 259 264 273 279 285 283 282 279 279 274 275 279 281 281 280 279 282 291 296
255 256 262 262 264 270 274 271 262 260 272 270 260 269 274 272 271 269 261 250 251 252 255 259 263 265 273 279 280 278 278 276 270 270 274 277 279 279 278 277 276 292 299 300
264 264 263 265 264 265 268 265 265 269 266 263 261 269 264 265 268 266 265 261 257 260 261 262 266 270 276 274 271 270 267 266 267 268 272 275 279 279 277 272 275 289 296 301
264 264 265 265 264 265 264 261 257 256 256 257 265 263 257 250 255 265 267 270 267 264 265 272 272 275 269 261 264 266 270 269 265 264 267 268 273 279 280 277 272 275 288 298
262 261 258 261 261 262 255 252 252 257 260 266 253 247 244 255 260 262 266 265 262 257 274 271 272 273 264 261 262 267 268 265 264 262 263 269 272 277 282 284 277 275 283 296
266 262 262 262 265 261 253 248 254 258 252 243 249 244 256 260 261 261 262 253 253 251 267 257 268 272 256 259 263 264 261 256 259 261 258 259 266 277 280 280 279 278 284 299
278 276 272 269 264 264 262 258 252 249 251 251 253 255 256 256 256 254 244 248 251 259 268 258 271 269 259 253 255 257 258 254 262 257 261 263 263 266 269 273 280 289 295 298